PDT,Max TemperatureF,Mean TemperatureF,Min TemperatureF,Max Dew PointF,MeanDew PointF,Min DewpointF,Max Humidity, Mean Humidity, Min Humidity, Max Sea Level PressureIn, Mean Sea Level PressureIn, Min Sea Level PressureIn, Max VisibilityMiles, Mean VisibilityMiles, Min VisibilityMiles, Max Wind SpeedMPH, Mean Wind SpeedMPH, Max Gust SpeedMPH,PrecipitationIn, CloudCover, Events, WindDirDegrees
2013-7-1,98,78,57,38,34,31,44,28,11,30.22,29.90,29.85,10,10,10,25,8,36,0.00,0,,201
2013-7-2,99,76,52,40,36,32,47,30,12,30.20,29.91,29.83,10,10,10,28,10,35,T,0,,284
2013-7-3,96,76,55,47,40,34,51,33,14,30.15,29.91,29.78,10,10,7,23,8,31,0.01,2,Rain-Thunderstorm,276
2013-7-4,94,74,54,48,43,36,61,39,16,30.08,29.79,29.67,10,10,10,35,6,48,T,2,Rain-Thunderstorm,298
2013-7-5,92,72,52,52,45,35,72,43,14,30.04,29.76,29.62,10,10,10,33,10,40,T,1,Rain-Thunderstorm,342
2013-7-6,91,75,59,54,40,30,69,42,15,29.98,29.69,29.61,10,10,10,36,14,45,T,1,Rain,190
2013-7-7,86,72,58,45,39,33,55,36,16,30.15,29.81,29.70,10,10,4,43,13,54,T,1,,183
2013-7-8,91,73,54,43,30,14,61,35,8,29.93,29.88,29.84,10,10,10,24,11,33,0.00,0,,180
2013-7-9,91,70,48,27,14,6,31,18,4,30.00,29.94,29.88,10,10,10,18,8,24,0.00,0,,171
2013-7-10,94,71,47,31,20,13,28,17,6,29.96,29.87,29.79,10,10,10,35,8,46,0.00,0,,195
2013-7-11,78,68,58,54,42,27,80,52,24,29.96,29.86,29.77,10,10,10,23,9,30,0.03,5,Rain,280
2013-7-12,87,67,46,51,43,31,86,50,13,30.14,29.89,29.75,10,10,10,21,6,28,T,2,Rain-Thunderstorm,188
2013-7-13,86,69,51,48,40,34,62,39,15,29.92,29.87,29.83,10,10,10,32,9,40,T,2,,191
2013-7-14,90,69,48,39,34,28,61,37,12,29.99,29.89,29.78,10,10,10,21,9,30,0.00,1,,196
2013-7-15,90,71,51,56,46,37,59,39,18,30.09,29.84,29.73,10,10,10,24,6,30,0.01,3,Rain-Thunderstorm,156
2013-7-16,91,75,59,57,45,36,84,50,15,29.88,29.81,29.74,10,10,10,23,9,31,0.02,3,Rain,191
2013-7-17,91,72,53,43,35,28,55,34,13,30.21,29.93,29.87,10,10,10,16,8,24,0.00,0,,184
2013-7-18,95,73,50,42,32,26,50,30,10,29.99,29.90,29.81,10,10,10,17,7,22,0.00,0,,142
2013-7-19,96,78,60,44,39,33,45,29,13,29.89,29.84,29.77,10,10,10,22,6,29,T,1,,182
2013-7-20,93,72,51,39,34,28,50,30,10,30.15,29.82,29.72,10,10,9,17,7,23,T,0,,194
2013-7-21,94,73,51,42,36,28,54,33,11,29.81,29.78,29.73,10,10,10,31,8,36,0.00,0,,179
2013-7-22,96,73,50,43,36,18,59,33,6,30.15,29.85,29.77,10,10,10,28,9,47,0.00,0,,178
2013-7-23,89,73,56,53,43,37,56,37,17,30.22,29.91,29.84,10,10,10,31,8,40,0.02,2,Rain-Thunderstorm,180
2013-7-24,87,70,53,54,46,41,67,44,21,30.19,29.98,29.86,10,10,10,25,7,30,0.01,3,Rain-Thunderstorm,285
2013-7-25,92,70,48,47,39,30,86,49,11,30.00,29.94,29.90,10,10,10,20,8,29,0.00,0,,235
2013-7-26,93,75,57,50,41,36,55,36,16,30.31,30.03,29.93,10,10,10,24,8,44,T,3,Rain-Thunderstorm,177
2013-7-27,68,60,51,57,54,51,93,74,55,30.00,29.95,29.88,10,10,7,17,4,23,0.11,5,Rain,192
2013-7-28,86,66,46,50,42,27,93,54,14,30.06,29.85,29.74,10,10,10,26,8,33,0.02,2,Rain-Thunderstorm,224
2013-7-29,83,69,55,49,42,37,62,41,20,29.96,29.88,29.76,10,10,10,30,7,37,0.02,4,Rain,203
2013-7-30,88,69,49,41,35,30,63,38,13,30.04,29.99,29.94,10,10,10,23,11,30,0.00,1,,185
2013-7-31,89,72,55,41,35,29,51,32,12,30.02,29.92,29.84,10,10,10,28,13,37,0.00,0,Rain,183